Location: St. Louis
(38.6270°N, 90.1994°W)
Time: 05:14:47
(UTC-05:00)

RS-15 - Pass Details

Date: 31 January 2022
Orbit: 1881 x 2163 km, 64.8° (Epoch: 20 May)

Event Time Altitude Azimuth Distance (km) Brightness Sun altitude
Rises 01:17:34 0° 328° (NNW) 5,670 10.6 -64.6°
Enters shadow 01:20:53 - 331° (NNW) 4,743 10.1 -64.2°
Exits shadow 01:47:35 - 135° (SE) 5,216 10.3 -60.6°
Sets 01:48:51 0° 136° (SE) 5,578 10.5 -60.4°
